UAL7 ZMCK-RJAA

Flight info

Callsign UAL7
Flight time N/A
Altitude 35100
Route MENUG2C MENUG Y345 POLHO W33 UKDUM DCT ANOBI DCT LC W201 UNSEK A326 ALARA/K0848S1130 A326 DONVO G597 AGAVO/N0455F370 Y644 EGOBA Y697 LANAT Y51 SAMON Y517 ESKAS Y303 ENTAK/N0459F380 Y30 SWAMP
Aircraft B38M/M-SDE1FGHILORVWXY/HB1

Departure

Time 2026-05-07 08:57
Airport Ulaanbaatar Chinggis Khaan International Airport (ZMCK)

Arrival

Time N/A
Airport Narita International Airport (RJAA)
Time Latitude Longitude Altitude Speed Heading
2026-05-07 08:18 47.65073 106.82047 4501 ft 0 kts 51°
2026-05-07 08:45 47.65063 106.82028 4502 ft 4 kts 49°
2026-05-07 08:45 47.65045 106.81999 4502 ft 4 kts 44°
2026-05-07 08:46 47.65024 106.81974 4501 ft 4 kts 32°
2026-05-07 08:46 47.65004 106.81960 4501 ft 2 kts 14°
2026-05-07 08:46 47.64982 106.81946 4501 ft 4 kts 46°
2026-05-07 08:46 47.64974 106.81915 4502 ft 4 kts 98°
2026-05-07 08:47 47.64979 106.81883 4501 ft 0 kts 104°
2026-05-07 08:50 47.64979 106.81884 4501 ft 0 kts 104°
2026-05-07 08:50 47.64978 106.81888 4500 ft 1 kts 105°
2026-05-07 08:50 47.64971 106.81927 4501 ft 7 kts 104°
2026-05-07 08:51 47.64960 106.81991 4500 ft 6 kts 104°
2026-05-07 08:51 47.64949 106.82051 4499 ft 6 kts 105°
2026-05-07 08:51 47.64937 106.82116 4501 ft 7 kts 104°
2026-05-07 08:51 47.64925 106.82190 4499 ft 8 kts 104°
2026-05-07 08:52 47.64909 106.82278 4500 ft 9 kts 104°
2026-05-07 08:52 47.64892 106.82372 4499 ft 10 kts 104°
2026-05-07 08:52 47.64876 106.82470 4497 ft 10 kts 104°
2026-05-07 08:52 47.64845 106.82559 4498 ft 10 kts 141°
2026-05-07 08:53 47.64780 106.82620 4496 ft 12 kts 147°
2026-05-07 08:53 47.64744 106.82696 4496 ft 9 kts 104°
2026-05-07 08:53 47.64724 106.82813 4499 ft 15 kts 104°
2026-05-07 08:53 47.64692 106.82994 4498 ft 20 kts 105°
2026-05-07 08:54 47.64656 106.83197 4497 ft 20 kts 105°
2026-05-07 08:54 47.64620 106.83399 4498 ft 20 kts 104°
2026-05-07 08:54 47.64584 106.83603 4495 ft 21 kts 104°
2026-05-07 08:54 47.64548 106.83807 4500 ft 21 kts 104°
2026-05-07 08:55 47.64512 106.84012 4497 ft 20 kts 104°
2026-05-07 08:55 47.64481 106.84190 4495 ft 10 kts 105°
2026-05-07 08:55 47.64457 106.84287 4497 ft 10 kts 124°
2026-05-07 08:55 47.64396 106.84331 4496 ft 10 kts 183°
2026-05-07 08:56 47.64322 106.84305 4499 ft 12 kts 196°
2026-05-07 08:56 47.64294 106.84235 4495 ft 8 kts 284°
2026-05-07 08:56 47.64310 106.84150 4498 ft 11 kts 284°
2026-05-07 08:56 47.64375 106.83785 4500 ft 66 kts 285°
2026-05-07 08:57 47.64537 106.82862 4499 ft 117 kts 284°
2026-05-07 08:57 47.64784 106.81477 4500 ft 159 kts 284°
2026-05-07 08:57 47.65077 106.79780 4732 ft 172 kts 284°
2026-05-07 08:57 47.65380 106.77977 5105 ft 188 kts 284°
2026-05-07 08:58 47.65716 106.76113 5763 ft 190 kts 285°
2026-05-07 08:58 47.66077 106.74107 6124 ft 214 kts 284°
2026-05-07 08:58 47.66442 106.71843 6549 ft 236 kts 277°
2026-05-07 08:58 47.66273 106.69379 7010 ft 256 kts 246°
2026-05-07 08:59 47.65087 106.67334 7602 ft 273 kts 212°
2026-05-07 08:59 47.63250 106.66641 8521 ft 282 kts 180°
2026-05-07 08:59 47.61340 106.67512 9255 ft 298 kts 147°
2026-05-07 08:59 47.59825 106.69656 10070 ft 305 kts 135°
2026-05-07 09:00 47.58283 106.71854 10812 ft 310 kts 139°
2026-05-07 09:00 47.56664 106.74019 11492 ft 317 kts 140°
2026-05-07 09:00 47.54993 106.76183 12245 ft 322 kts 140°
2026-05-07 09:00 47.53276 106.78374 12904 ft 330 kts 141°
2026-05-07 09:01 47.51517 106.80596 13604 ft 335 kts 141°
2026-05-07 09:01 47.49724 106.82846 14217 ft 342 kts 141°
2026-05-07 09:01 47.47922 106.85099 14838 ft 347 kts 141°
2026-05-07 09:01 47.46034 106.87454 15110 ft 365 kts 141°
2026-05-07 09:02 47.44239 106.90244 15292 ft 385 kts 123°
2026-05-07 09:02 47.43094 106.93874 15472 ft 399 kts 103°
2026-05-07 09:02 47.42604 106.97974 15676 ft 412 kts 96°
2026-05-07 09:02 47.42168 107.02189 16105 ft 419 kts 96°
2026-05-07 09:03 47.41733 107.06454 16757 ft 422 kts 95°
2026-05-07 09:03 47.41297 107.10763 17296 ft 427 kts 95°
2026-05-07 09:03 47.40863 107.15051 17895 ft 430 kts 95°
2026-05-07 09:03 47.40418 107.19429 18417 ft 434 kts 95°
2026-05-07 09:04 47.39968 107.23852 18919 ft 437 kts 95°
2026-05-07 09:04 47.39512 107.28304 19437 ft 440 kts 95°
2026-05-07 09:04 47.39054 107.32771 19943 ft 443 kts 95°
2026-05-07 09:04 47.38590 107.37268 20416 ft 446 kts 95°
2026-05-07 09:05 47.38121 107.41807 20840 ft 449 kts 95°
2026-05-07 09:05 47.37647 107.46364 21278 ft 451 kts 95°
2026-05-07 09:05 47.37174 107.50902 21726 ft 454 kts 95°
2026-05-07 09:05 47.36694 107.55482 22428 ft 448 kts 95°
2026-05-07 09:06 47.36231 107.59957 23435 ft 435 kts 92°
2026-05-07 09:06 47.36242 107.64278 24297 ft 411 kts 74°
2026-05-07 09:06 47.36939 107.68255 25071 ft 395 kts 66°
2026-05-07 09:06 47.37789 107.72104 25450 ft 398 kts 64°
2026-05-07 09:07 47.38680 107.75975 25792 ft 402 kts 68°
2026-05-07 09:07 47.39056 107.80131 26129 ft 417 kts 86°
2026-05-07 09:07 47.38558 107.84406 26453 ft 430 kts 105°
2026-05-07 09:07 47.37234 107.88402 26740 ft 439 kts 121°
2026-05-07 09:08 47.35587 107.92145 27043 ft 442 kts 120°
2026-05-07 09:08 47.33923 107.95981 27350 ft 445 kts 120°
2026-05-07 09:08 47.32244 107.99807 27717 ft 446 kts 120°
2026-05-07 09:08 47.30548 108.03654 28036 ft 448 kts 121°
2026-05-07 09:09 47.28852 108.07491 28381 ft 450 kts 121°
2026-05-07 09:09 47.27140 108.11360 28745 ft 452 kts 120°
2026-05-07 09:09 47.25417 108.15244 29043 ft 454 kts 120°
2026-05-07 09:09 47.23677 108.19165 29171 ft 461 kts 120°
2026-05-07 09:10 47.21917 108.23122 29418 ft 463 kts 121°
2026-05-07 09:10 47.20146 108.27098 29726 ft 466 kts 121°
2026-05-07 09:10 47.18391 108.31036 29944 ft 469 kts 121°
2026-05-07 09:10 47.16597 108.35052 30227 ft 470 kts 121°
2026-05-07 09:11 47.14807 108.39055 30439 ft 472 kts 121°
2026-05-07 09:11 47.13000 108.43090 30716 ft 473 kts 121°
2026-05-07 09:11 47.11183 108.47141 30918 ft 476 kts 121°
2026-05-07 09:11 47.09357 108.51204 31149 ft 478 kts 121°
2026-05-07 09:12 47.07524 108.55281 31387 ft 480 kts 121°
2026-05-07 09:12 47.05682 108.59369 31600 ft 482 kts 121°
2026-05-07 09:12 47.03852 108.63427 31821 ft 484 kts 121°
2026-05-07 09:12 47.01995 108.67541 32015 ft 486 kts 121°
2026-05-07 09:13 47.00136 108.71665 32231 ft 487 kts 121°
2026-05-07 09:13 46.98263 108.75816 32489 ft 489 kts 121°
2026-05-07 09:13 46.96381 108.79983 32675 ft 492 kts 121°
2026-05-07 09:13 46.94490 108.84162 32861 ft 494 kts 121°
2026-05-07 09:14 46.92592 108.88352 33087 ft 495 kts 121°
2026-05-07 09:14 46.90681 108.92562 33282 ft 497 kts 121°
2026-05-07 09:14 46.88765 108.96779 33487 ft 499 kts 121°
2026-05-07 09:14 46.86850 109.00984 33685 ft 501 kts 121°
2026-05-07 09:15 46.84941 109.05171 33875 ft 502 kts 121°
2026-05-07 09:15 46.83006 109.09411 34076 ft 504 kts 121°
2026-05-07 09:15 46.81056 109.13676 34229 ft 505 kts 121°
2026-05-07 09:15 46.79101 109.17944 34414 ft 506 kts 121°
2026-05-07 09:16 46.77140 109.22218 34605 ft 507 kts 121°
2026-05-07 09:16 46.75179 109.26488 34813 ft 507 kts 121°
2026-05-07 09:16 46.73222 109.30741 34991 ft 508 kts 121°
2026-05-07 09:16 46.71251 109.35017 35182 ft 509 kts 121°
2026-05-07 09:17 46.69270 109.39311 35362 ft 510 kts 121°
2026-05-07 09:17 46.67321 109.43528 35571 ft 510 kts 121°
2026-05-07 09:17 46.65333 109.47821 35741 ft 511 kts 121°
2026-05-07 09:17 46.63340 109.52119 35922 ft 512 kts 121°
2026-05-07 09:18 46.61346 109.56413 36081 ft 513 kts 121°
2026-05-07 09:18 46.59358 109.60688 36264 ft 514 kts 122°
2026-05-07 09:18 46.57351 109.64997 36425 ft 514 kts 122°
2026-05-07 09:18 46.55344 109.69300 36584 ft 515 kts 122°
2026-05-07 09:19 46.53333 109.73603 36748 ft 516 kts 122°
2026-05-07 09:19 46.51342 109.77858 36885 ft 516 kts 122°
2026-05-07 09:19 46.49323 109.82167 36995 ft 515 kts 122°
2026-05-07 09:19 46.47316 109.86441 36978 ft 510 kts 122°
2026-05-07 09:20 46.43348 109.94875 37001 ft 507 kts 122°
2026-05-07 09:20 46.39364 110.03318 36986 ft 507 kts 122°
2026-05-07 09:21 46.35374 110.11747 36990 ft 507 kts 122°
2026-05-07 09:21 46.31417 110.20084 36992 ft 507 kts 122°
2026-05-07 09:22 46.27411 110.28496 36987 ft 507 kts 122°
2026-05-07 09:22 46.23406 110.36883 37022 ft 507 kts 122°
2026-05-07 09:23 46.19391 110.45264 36997 ft 508 kts 122°
2026-05-07 09:23 46.15374 110.53626 36992 ft 508 kts 122°
2026-05-07 09:24 46.11364 110.61946 36971 ft 508 kts 123°
2026-05-07 09:24 46.07324 110.70307 37019 ft 509 kts 122°
2026-05-07 09:25 45.98648 110.88240 37015 ft 509 kts 122°
2026-05-07 09:25 45.82387 111.21414 37037 ft 508 kts 120°
2026-05-07 09:26 45.65452 111.53500 37032 ft 511 kts 126°
2026-05-07 09:26 45.58282 111.70697 37064 ft 504 kts 110°
2026-05-07 09:26 45.54093 111.82046 36970 ft 509 kts 130°
2026-05-07 09:27 45.48602 111.88326 37058 ft 508 kts 144°
2026-05-07 09:27 45.43838 111.95547 36985 ft 500 kts 114°
2026-05-07 09:27 45.37566 112.12938 37046 ft 507 kts 135°
2026-05-07 09:28 45.32595 112.20122 37045 ft 510 kts 127°
2026-05-07 09:28 45.24443 112.36086 37084 ft 507 kts 137°
2026-05-07 09:28 45.19666 112.43445 37029 ft 506 kts 124°
2026-05-07 09:29 45.15359 112.51378 37050 ft 510 kts 127°
2026-05-07 09:29 45.07233 112.67641 37004 ft 509 kts 128°
2026-05-07 09:29 45.03146 112.75787 37020 ft 506 kts 116°
2026-05-07 09:30 44.99119 112.83928 37013 ft 509 kts 131°
2026-05-07 09:30 44.95789 112.89610 36991 ft 507 kts 118°
2026-05-07 09:30 44.93966 112.93837 37105 ft 505 kts 121°
2026-05-07 09:30 44.91806 112.98284 36997 ft 509 kts 122°
2026-05-07 09:31 44.87735 113.06428 37059 ft 510 kts 123°
2026-05-07 09:31 44.79521 113.22669 37060 ft 510 kts 123°
2026-05-07 09:32 44.72346 113.39515 37087 ft 496 kts 101°
2026-05-07 09:32 44.69722 113.48540 37012 ft 505 kts 122°
2026-05-07 09:32 44.66418 113.55586 37000 ft 504 kts 111°
2026-05-07 09:33 44.64185 113.64768 37023 ft 501 kts 108°
2026-05-07 09:33 44.62885 113.69299 37131 ft 501 kts 109°
2026-05-07 09:33 44.61546 113.73790 37082 ft 504 kts 109°
2026-05-07 09:34 44.58754 113.82895 37071 ft 504 kts 110°
2026-05-07 09:34 44.50647 114.09255 37081 ft 504 kts 109°
2026-05-07 09:35 44.39101 114.44676 37086 ft 504 kts 110°
2026-05-07 09:35 44.34142 114.64400 37017 ft 504 kts 118°
2026-05-07 09:36 44.30600 114.72777 37034 ft 501 kts 114°
2026-05-07 09:36 44.25773 114.87083 37074 ft 502 kts 111°
2026-05-07 09:37 44.20063 115.04681 37067 ft 502 kts 111°
2026-05-07 09:37 44.14301 115.22361 37064 ft 502 kts 111°
2026-05-07 09:38 44.08498 115.39985 37062 ft 501 kts 111°
2026-05-07 09:38 44.02683 115.57616 37045 ft 502 kts 111°
2026-05-07 09:39 43.96879 115.75061 37046 ft 503 kts 112°
2026-05-07 09:39 43.93387 115.85461 37046 ft 504 kts 115°
2026-05-07 09:39 43.91454 115.89509 37030 ft 505 kts 131°
2026-05-07 09:40 43.88853 115.92757 37050 ft 504 kts 145°
2026-05-07 09:40 43.85837 115.95177 37008 ft 504 kts 160°
2026-05-07 09:40 43.82502 115.96567 37060 ft 499 kts 168°
2026-05-07 09:41 43.71265 116.00054 37030 ft 503 kts 171°
2026-05-07 09:41 43.57597 116.03946 37048 ft 502 kts 171°
2026-05-07 09:42 43.43890 116.07793 37036 ft 503 kts 171°
2026-05-07 09:42 43.32572 116.10983 37073 ft 503 kts 171°
2026-05-07 09:43 43.18872 116.14823 37059 ft 503 kts 171°
2026-05-07 09:43 43.05296 116.18817 37040 ft 504 kts 170°
2026-05-07 09:44 42.91620 116.23028 37063 ft 503 kts 171°
2026-05-07 09:44 42.77972 116.27190 37058 ft 504 kts 171°
2026-05-07 09:45 42.64323 116.31363 37063 ft 503 kts 171°
2026-05-07 09:45 42.50764 116.35487 37063 ft 503 kts 171°
2026-05-07 09:46 42.37111 116.39597 37074 ft 503 kts 172°
2026-05-07 09:46 42.28498 116.42192 37068 ft 503 kts 171°
2026-05-07 09:47 42.21756 116.44713 37011 ft 508 kts 156°
2026-05-07 09:47 42.18789 116.47290 37052 ft 511 kts 141°
2026-05-07 09:47 42.16312 116.50614 37052 ft 514 kts 127°
2026-05-07 09:47 42.14447 116.54701 37068 ft 512 kts 114°
2026-05-07 09:48 42.12892 116.59029 37056 ft 515 kts 115°
2026-05-07 09:48 42.09835 116.67763 37073 ft 517 kts 114°
2026-05-07 09:49 42.06245 116.78287 37061 ft 516 kts 113°
2026-05-07 09:49 42.00961 116.93776 37065 ft 517 kts 113°
2026-05-07 09:50 41.94980 117.11191 37072 ft 517 kts 114°
2026-05-07 09:50 41.90424 117.24343 37061 ft 519 kts 114°
2026-05-07 09:51 41.84347 117.41854 37048 ft 519 kts 114°
2026-05-07 09:51 41.78213 117.59390 37038 ft 519 kts 115°
2026-05-07 09:52 41.73640 117.72358 37039 ft 519 kts 115°
2026-05-07 09:52 41.67480 117.89787 37037 ft 518 kts 115°
2026-05-07 09:53 41.61292 118.07131 37027 ft 518 kts 115°
2026-05-07 09:53 41.57029 118.19111 37032 ft 518 kts 115°
2026-05-07 09:54 41.53109 118.29987 37034 ft 518 kts 116°
2026-05-07 09:54 41.49834 118.38450 37004 ft 515 kts 128°
2026-05-07 09:54 41.47488 118.42009 37050 ft 509 kts 141°
2026-05-07 09:55 41.44618 118.44712 37012 ft 503 kts 157°
2026-05-07 09:55 41.38289 118.48670 37010 ft 502 kts 160°
2026-05-07 09:56 41.30789 118.53134 37023 ft 502 kts 160°
2026-05-07 09:56 41.18082 118.60544 37021 ft 502 kts 161°
2026-05-07 09:57 41.05426 118.67905 37008 ft 502 kts 161°
2026-05-07 09:57 40.95913 118.73413 37025 ft 500 kts 161°
2026-05-07 09:58 40.83201 118.80793 37015 ft 499 kts 162°
2026-05-07 09:58 40.70462 118.88065 37028 ft 499 kts 162°
2026-05-07 09:59 40.57835 118.95276 37018 ft 499 kts 162°
2026-05-07 09:59 40.45147 119.02521 37030 ft 495 kts 163°
2026-05-07 10:00 40.34344 119.08652 37014 ft 495 kts 163°
2026-05-07 10:00 40.28022 119.12227 37027 ft 495 kts 163°
2026-05-07 10:01 40.22070 119.16756 37036 ft 509 kts 142°
2026-05-07 10:01 40.19733 119.20252 37014 ft 519 kts 126°
2026-05-07 10:01 40.18016 119.24430 37059 ft 522 kts 118°
2026-05-07 10:02 40.14795 119.32996 37035 ft 527 kts 118°
2026-05-07 10:02 40.10522 119.44610 37018 ft 527 kts 118°
2026-05-07 10:03 40.07348 119.53206 37031 ft 528 kts 118°
2026-05-07 10:03 40.04175 119.61792 36986 ft 530 kts 119°
2026-05-07 10:04 40.00768 119.70324 37001 ft 527 kts 131°
2026-05-07 10:04 39.98347 119.73815 37033 ft 513 kts 146°
2026-05-07 10:04 39.95531 119.76577 37013 ft 504 kts 158°
2026-05-07 10:04 39.92394 119.78393 36986 ft 484 kts 173°
2026-05-07 10:05 39.89169 119.79586 37043 ft 484 kts 173°
2026-05-07 10:05 39.82703 119.81849 37033 ft 485 kts 174°
2026-05-07 10:06 39.73051 119.85028 37021 ft 485 kts 175°
2026-05-07 10:06 39.63357 119.88193 37035 ft 486 kts 175°
2026-05-07 10:07 39.50247 119.92439 37037 ft 486 kts 175°
2026-05-07 10:07 39.37147 119.96705 37050 ft 486 kts 175°
2026-05-07 10:08 39.24117 120.00975 37034 ft 485 kts 175°
2026-05-07 10:08 39.11034 120.05252 37048 ft 486 kts 175°
2026-05-07 10:09 38.97972 120.09584 37055 ft 486 kts 175°
2026-05-07 10:09 38.87891 120.12858 37063 ft 483 kts 176°
2026-05-07 10:10 38.81317 120.15020 37056 ft 480 kts 176°
2026-05-07 10:10 38.70446 120.18544 37065 ft 480 kts 176°
2026-05-07 10:11 38.64162 120.21774 37050 ft 508 kts 152°
2026-05-07 10:11 38.61511 120.24871 37051 ft 526 kts 136°
2026-05-07 10:11 38.59390 120.28748 37050 ft 540 kts 122°
2026-05-07 10:11 38.57991 120.33228 37036 ft 549 kts 106°
2026-05-07 10:12 38.57244 120.37965 37083 ft 551 kts 104°
2026-05-07 10:12 38.55661 120.47563 37068 ft 554 kts 104°
2026-05-07 10:13 38.54086 120.57223 37060 ft 555 kts 104°
2026-05-07 10:13 38.51126 120.75452 37062 ft 555 kts 105°
2026-05-07 10:14 38.47966 120.94742 37119 ft 555 kts 104°
2026-05-07 10:14 38.46034 121.06407 37058 ft 552 kts 105°
2026-05-07 10:15 38.42885 121.25610 37031 ft 553 kts 105°
2026-05-07 10:15 38.39765 121.44823 37032 ft 556 kts 104°
2026-05-07 10:16 38.37000 121.61522 37036 ft 557 kts 105°
2026-05-07 10:16 38.34210 121.78072 37029 ft 557 kts 105°
2026-05-07 10:17 38.31951 121.91454 37028 ft 560 kts 106°
2026-05-07 10:17 38.29173 122.07729 36983 ft 560 kts 107°
2026-05-07 10:18 38.26128 122.25620 37005 ft 562 kts 104°
2026-05-07 10:18 38.24734 122.35383 36981 ft 562 kts 105°
2026-05-07 10:19 38.22352 122.44655 36968 ft 541 kts 129°
2026-05-07 10:19 38.20231 122.48395 36959 ft 517 kts 144°
2026-05-07 10:19 38.17719 122.51619 37010 ft 516 kts 144°
2026-05-07 10:20 38.12699 122.58171 37010 ft 519 kts 145°
2026-05-07 10:20 38.05894 122.66989 36988 ft 517 kts 145°
2026-05-07 10:21 37.97859 122.77422 36994 ft 517 kts 145°
2026-05-07 10:21 37.87961 122.90207 36899 ft 516 kts 146°
2026-05-07 10:22 37.82955 122.96672 37008 ft 513 kts 146°
2026-05-07 10:22 37.76508 123.04964 37004 ft 512 kts 146°
2026-05-07 10:23 37.66787 123.17424 36972 ft 512 kts 146°
2026-05-07 10:23 37.61804 123.23794 36986 ft 510 kts 146°
2026-05-07 10:24 37.56855 123.30108 36988 ft 510 kts 146°
2026-05-07 10:24 37.54492 123.33500 36925 ft 522 kts 136°
2026-05-07 10:24 37.52323 123.37166 37044 ft 522 kts 137°
2026-05-07 10:25 37.47945 123.44491 36969 ft 523 kts 137°
2026-05-07 10:25 37.42466 123.53668 36985 ft 524 kts 137°
2026-05-07 10:26 37.33697 123.68309 36968 ft 523 kts 137°
2026-05-07 10:26 37.25000 123.82744 36969 ft 524 kts 137°
2026-05-07 10:27 37.20609 123.90035 36976 ft 524 kts 137°
2026-05-07 10:27 37.16212 123.97306 36943 ft 523 kts 137°
2026-05-07 10:27 37.14276 124.01217 36932 ft 540 kts 120°
2026-05-07 10:28 37.13313 124.05818 36935 ft 554 kts 97°
2026-05-07 10:28 37.13523 124.10655 36963 ft 560 kts 77°
2026-05-07 10:28 37.14731 124.15283 36965 ft 559 kts 62°
2026-05-07 10:29 37.17525 124.24320 36880 ft 563 kts 82°
2026-05-07 10:29 37.17812 124.29162 36966 ft 558 kts 94°
2026-05-07 10:29 37.17826 124.34041 36942 ft 562 kts 91°
2026-05-07 10:30 37.18332 124.55408 36965 ft 562 kts 91°
2026-05-07 10:30 37.18752 124.74838 36922 ft 562 kts 91°
2026-05-07 10:31 37.19158 124.94327 36938 ft 560 kts 91°
2026-05-07 10:31 37.19456 125.10453 36943 ft 559 kts 92°
2026-05-07 10:32 37.19746 125.27300 36899 ft 559 kts 92°
2026-05-07 10:32 37.20059 125.46628 36926 ft 557 kts 92°
2026-05-07 10:33 37.20325 125.66016 36942 ft 556 kts 93°
2026-05-07 10:33 37.20524 125.81825 36904 ft 555 kts 93°
2026-05-07 10:34 37.20685 125.96123 36917 ft 553 kts 93°
2026-05-07 10:34 37.20885 126.15432 36929 ft 554 kts 93°
2026-05-07 10:35 37.21036 126.34562 36912 ft 552 kts 94°